Location: Arrien
(43.3167°N, 0.1500°W)
Time: 04:08:31
(UTC+00:00)

Okean-O - Pass Details

Date: 15 October 2021
Orbit: 639 x 640 km, 98.2° (Epoch: 02 December)

Event Time Altitude Azimuth Distance (km) Brightness Sun altitude
Exits shadow 19:21:25 35° 178° (S) 1,029 3.5 -23.3°
Maximum altitude 19:23:14 76° 258° (WSW) 664 2.7 -23.6°
Drops below altitude 10° 19:27:41 10° 344° (NNW) 2,042 5.5 -24.4°
Sets 19:29:54 0° 346° (NNW) 2,956 6.4 -24.8°
